Retour au catalogue

STARLINK-31071

ActifCommunicationsVLEO
NORAD 58602·PAYLOAD·🇺🇸 United States

Lancé Dec 19, 2023 depuis Cape Canaveral Space Force Station

Loading…

Prochains Passages (prochaines 24 heures)

TLE

FraisSource: CelesTrak SupGP

Époque: Sep 15, 2026, 03:27 UTC

1 58602C 23200P   26258.14423611  .00019626  00000+0  71071-3 0  2583
2 58602  43.0046  18.7370 0001986 266.4104 141.5881 15.27574265    16

Suivez STARLINK-31071 en temps réel avec AllMySat

Download on the App Store